Flag for United Kingdom Weather past 2 weeks in Darlington, England, United Kingdom

Now
61 °F

More clouds than sun.


Feels Like: 61 °F
Forecast: 59 / 68 °F
Wind: 9 mph from Northeast

Location: Tees-Side

Current Time: Sep 17, 2014 at 3:24:59 PM

Latest Report: Sep 17, 2014 at 2:50 PM


Visibility: 4 mi

Pressure: 29.98 "Hg

Humidity: 88%

Dew point: 57 °F

Location of DarlingtonLocation

Historic Weather in Darlington — Graph

°F

Darlington temperature yesterday

Maximum temperature yesterday: 64 °F (at 1:20 PM)
Minimum temperature yesterday: 54 °F (at 7:50 AM)
Average temperature yesterday: 60 °F

Past Weeks' High & Low Weather Summary

 TemperatureHumidityPressure
High72 °F (Sep 4, 1:50 PM)100% (Sep 11, 5:50 AM)30.42 "Hg (Sep 11, 5:50 AM)
Low45 °F (Sep 12, 7:20 AM)43% (Sep 7, 3:50 PM)29.95 "Hg (Sep 6, 4:20 PM)
Average60 °F76%30.15 "Hg
* Reported Sep 2 2:20 PM — Sep 17 2:20 PM, Darlington, Weather by CustomWeather, © 2014

Note: Actual official high and low records may vary slightly from our data, if they occured in-between our weather recording intervals... More about our weather records

Advertising

Darlington weather history for previous 24 hours

 ConditionsComfort  
Time TempWeatherWind HumidityBarometerVisibility
2:20 PM
Sep 17
61 °FPartly sunny.12 mph88%29.98 "Hg4 mi
1:50 PM61 °FPartly sunny.10 mph83%29.98 "Hg4 mi
1:20 PM61 °FPartly sunny.9 mph83%29.98 "Hg4 mi
12:50 PM61 °FPartly sunny.9 mph83%29.98 "Hg4 mi
12:20 PM59 °FPartly sunny.10 mph88%29.98 "Hg3 mi
11:50 AM59 °FPartly sunny.10 mph88%29.98 "Hg3 mi
11:20 AM59 °FPartly sunny.9 mph88%30.01 "Hg3 mi
10:50 AM57 °FPartly sunny.9 mph94%30.01 "Hg2 mi
10:20 AM57 °FPartly sunny.9 mph94%30.01 "Hg2 mi
9:50 AM57 °FLow clouds.10 mph94%30.01 "Hg3 mi
9:20 AM57 °FLow clouds.7 mph88%30.01 "Hg3 mi
8:50 AM57 °FLow clouds.7 mph88%30.01 "Hg3 mi
8:20 AM57 °FLow clouds.7 mph88%30.01 "Hg3 mi
7:50 AM57 °FLow clouds.5 mph88%30.01 "Hg4 mi
7:20 AM57 °FPartly cloudy.2 mph88%30.01 "Hg4 mi
6:50 AM57 °FPassing clouds.3 mph88%30.01 "Hg4 mi
6:20 AM57 °FPassing clouds.3 mph88%30.01 "Hg5 mi
5:50 AM57 °FPassing clouds.3 mph88%30.01 "HgN/A
1:20 AM57 °FPassing clouds.3 mph88%30.04 "Hg4 mi
12:50 AM57 °FPassing clouds.2 mph88%30.04 "Hg4 mi
12:20 AM57 °FPassing clouds.3 mph88%30.04 "Hg4 mi
11:50 PM
Sep 16
57 °FPassing clouds.2 mph88%30.04 "Hg4 mi
11:20 PM57 °FPassing clouds.5 mph88%30.04 "Hg4 mi
10:50 PM57 °FPassing clouds.2 mph88%30.04 "Hg3 mi
10:20 PM57 °FPassing clouds.7 mph88%30.04 "Hg3 mi
9:50 PM57 °FPartly cloudy.7 mph88%30.07 "Hg3 mi
9:20 PM57 °FPartly cloudy.8 mph88%30.07 "Hg3 mi
8:50 PM57 °FPartly cloudy.10 mph88%30.04 "Hg3 mi
8:20 PM57 °FFog.9 mph94%30.04 "Hg3 mi
7:50 PM57 °FBroken clouds.9 mph94%30.04 "Hg3 mi
7:20 PM59 °FBroken clouds.13 mph88%30.04 "Hg2 mi
6:50 PM59 °FHaze.13 mph88%30.04 "Hg2 mi
6:20 PM61 °FHaze.13 mph83%30.01 "Hg3 mi
5:50 PM63 °FHaze.12 mph83%30.01 "Hg3 mi
5:20 PM63 °FHaze.10 mph83%30.01 "Hg3 mi
4:50 PM63 °FPassing clouds.10 mph83%30.01 "Hg4 mi
4:20 PM64 °FScattered clouds.12 mph78%30.04 "Hg4 mi
3:50 PM63 °FScattered clouds.12 mph77%30.04 "Hg4 mi
3:20 PM63 °FScattered clouds.10 mph83%30.04 "Hg3 mi
Weather by CustomWeather, © 2014

See weather overviewHow to use our weather pages